Time,TemperatureF,DewpointF,PressureIn,WindDirection,WindDirectionDegrees,WindSpeedMPH,WindSpeedGustMPH,Humidity,HourlyPrecipIn,Conditions,Clouds,dailyrainin,SoftwareType,DateUTC
2016-12-11 00:03:00,66.4,60.0,30.09,North,3,4.0,6.0,80,0.00,,,0.00,Wunderground v.1.15,2016-12-10 13:03:00,
2016-12-11 00:09:00,66.4,60.4,30.09,NNE,20,4.0,9.0,81,0.00,,,0.00,Wunderground v.1.15,2016-12-10 13:09:00,
2016-12-11 00:14:00,66.3,60.3,30.08,NNE,26,4.0,5.0,81,0.00,,,0.00,Wunderground v.1.15,2016-12-10 13:14:00,
2016-12-11 00:19:00,66.3,60.3,30.08,NE,38,4.0,4.0,81,0.00,,,0.00,Wunderground v.1.15,2016-12-10 13:19:00,
2016-12-11 00:25:00,66.2,60.2,30.08,NNE,19,3.0,5.0,81,0.00,,,0.00,Wunderground v.1.15,2016-12-10 13:25:00,
2016-12-11 00:31:00,66.2,60.2,30.09,North,0,3.0,13.0,81,0.00,,,-99.99,WeatherLink 6.0.2,2016-12-10 13:31:00,
2016-12-11 00:37:00,66.0,60.0,30.08,NNE,30,4.0,7.0,81,0.00,,,0.00,Wunderground v.1.15,2016-12-10 13:37:00,
2016-12-11 00:42:00,66.0,60.0,30.09,NNE,22,3.0,6.0,81,0.00,,,0.00,Wunderground v.1.15,2016-12-10 13:42:00,
2016-12-11 00:48:00,66.0,60.0,30.08,NE,34,3.0,6.0,81,0.00,,,0.00,Wunderground v.1.15,2016-12-10 13:48:00,
2016-12-11 00:59:00,65.9,59.9,30.08,NNE,12,3.0,4.0,81,0.00,,,0.00,Wunderground v.1.15,2016-12-10 13:59:00,
2016-12-11 01:10:00,65.8,59.8,30.08,NE,34,3.0,3.0,81,0.00,,,0.00,Wunderground v.1.15,2016-12-10 14:10:00,
2016-12-11 01:16:00,65.8,59.8,30.08,North,0,3.0,12.0,81,0.00,,,-99.99,WeatherLink 6.0.2,2016-12-10 14:16:00,
2016-12-11 01:21:00,65.7,59.7,30.08,NW,324,3.0,6.0,81,0.00,,,0.00,Wunderground v.1.15,2016-12-10 14:21:00,
2016-12-11 01:26:00,65.7,59.7,30.08,NNE,23,3.0,6.0,81,0.00,,,0.00,Wunderground v.1.15,2016-12-10 14:26:00,
2016-12-11 01:32:00,65.8,59.8,30.07,NE,38,3.0,3.0,81,0.00,,,0.00,Wunderground v.1.15,2016-12-10 14:32:00,
2016-12-11 01:37:00,65.8,59.8,30.07,North,359,3.0,5.0,81,0.00,,,0.00,Wunderground v.1.15,2016-12-10 14:37:00,
2016-12-11 01:43:00,65.7,60.1,30.07,North,8,3.0,5.0,82,0.00,,,0.00,Wunderground v.1.15,2016-12-10 14:43:00,
2016-12-11 01:49:00,65.6,60.0,30.07,NE,51,2.0,5.0,82,0.00,,,0.00,Wunderground v.1.15,2016-12-10 14:49:00,
2016-12-11 01:54:00,65.7,60.1,30.07,North,3,3.0,7.0,82,0.00,,,0.00,Wunderground v.1.15,2016-12-10 14:54:00,
2016-12-11 01:59:00,65.6,60.0,30.07,North,352,3.0,7.0,82,0.00,,,0.00,Wunderground v.1.15,2016-12-10 14:59:00,
2016-12-11 02:05:00,65.6,60.0,30.07,North,1,3.0,7.0,82,0.00,,,0.00,Wunderground v.1.15,2016-12-10 15:05:00,
2016-12-11 02:10:00,65.6,60.0,30.06,NW,318,2.0,6.0,82,0.00,,,0.00,Wunderground v.1.15,2016-12-10 15:10:00,
2016-12-11 02:15:00,65.5,59.9,30.06,NNE,22,3.0,8.0,82,0.00,,,-99.99,WeatherLink 6.0.2,2016-12-10 15:15:00,
2016-12-11 02:21:00,65.5,59.9,30.06,NE,34,3.0,12.0,82,0.00,,,0.00,Wunderground v.1.15,2016-12-10 15:21:00,
2016-12-11 02:27:00,65.5,59.9,30.06,North,349,3.0,12.0,82,0.00,,,0.00,Wunderground v.1.15,2016-12-10 15:27:00,
2016-12-11 02:32:00,65.5,59.9,30.06,North,1,3.0,4.0,82,0.00,,,0.00,Wunderground v.1.15,2016-12-10 15:32:00,
2016-12-11 02:37:00,65.5,59.9,30.06,NNW,340,3.0,6.0,82,0.00,,,0.00,Wunderground v.1.15,2016-12-10 15:37:00,
2016-12-11 02:43:00,65.5,59.9,30.06,NE,36,3.0,4.0,82,0.00,,,0.00,Wunderground v.1.15,2016-12-10 15:43:00,
2016-12-11 02:48:00,65.5,59.9,30.06,North,3,3.0,4.0,82,0.00,,,0.00,Wunderground v.1.15,2016-12-10 15:48:00,
2016-12-11 02:54:00,65.4,59.8,30.06,NNW,334,3.0,6.0,82,0.00,,,0.00,Wunderground v.1.15,2016-12-10 15:54:00,
2016-12-11 02:59:00,65.4,59.8,30.05,NNE,30,3.0,3.0,82,0.00,,,0.00,Wunderground v.1.15,2016-12-10 15:59:00,
2016-12-11 03:05:00,65.4,59.8,30.05,NNE,17,3.0,5.0,82,0.00,,,0.00,Wunderground v.1.15,2016-12-10 16:05:00,
2016-12-11 03:10:00,65.4,59.8,30.05,NE,42,3.0,4.0,82,0.00,,,0.00,Wunderground v.1.15,2016-12-10 16:10:00,
2016-12-11 03:16:00,65.4,59.8,30.05,NNE,22,3.0,12.0,82,0.00,,,-99.99,WeatherLink 6.0.2,2016-12-10 16:16:00,
2016-12-11 03:22:00,65.2,59.6,30.05,ENE,64,3.0,3.0,82,0.00,,,0.00,Wunderground v.1.15,2016-12-10 16:22:00,
2016-12-11 03:27:00,65.2,59.9,30.05,North,4,2.0,3.0,83,0.00,,,0.00,Wunderground v.1.15,2016-12-10 16:27:00,
2016-12-11 03:32:00,65.1,59.8,30.05,North,359,2.0,4.0,83,0.00,,,0.00,Wunderground v.1.15,2016-12-10 16:32:00,
2016-12-11 03:38:00,65.0,59.7,30.05,North,9,2.0,5.0,83,0.00,,,0.00,Wunderground v.1.15,2016-12-10 16:38:00,
2016-12-11 03:44:00,65.0,59.7,30.05,NNE,30,2.0,3.0,83,0.00,,,0.00,Wunderground v.1.15,2016-12-10 16:44:00,
2016-12-11 03:49:00,64.9,59.6,30.05,NNE,19,2.0,2.0,83,0.00,,,0.00,Wunderground v.1.15,2016-12-10 16:49:00,
2016-12-11 03:54:00,64.9,59.9,30.05,NNW,346,2.0,2.0,84,0.00,,,0.00,Wunderground v.1.15,2016-12-10 16:54:00,
2016-12-11 04:00:00,64.9,59.9,30.06,North,7,2.0,2.0,84,0.00,,,0.00,Wunderground v.1.15,2016-12-10 17:00:00,
2016-12-11 04:05:00,64.8,59.9,30.06,NE,53,2.0,2.0,84,0.00,,,0.00,Wunderground v.1.15,2016-12-10 17:05:00,
2016-12-11 04:11:00,64.8,60.2,30.06,NE,36,1.0,1.0,85,0.00,,,0.00,Wunderground v.1.15,2016-12-10 17:11:00,
2016-12-11 04:16:00,64.8,60.2,30.06,North,0,1.0,6.0,85,0.00,,,-99.99,WeatherLink 6.0.2,2016-12-10 17:16:00,
2016-12-11 04:21:00,64.7,60.1,30.06,North,355,1.0,2.0,85,0.00,,,0.00,Wunderground v.1.15,2016-12-10 17:21:00,
2016-12-11 04:28:00,64.6,60.3,30.06,NE,45,1.0,3.0,86,0.00,,,0.00,Wunderground v.1.15,2016-12-10 17:28:00,
2016-12-11 04:33:00,64.6,60.3,30.06,NNW,344,1.0,2.0,86,0.00,,,0.00,Wunderground v.1.15,2016-12-10 17:33:00,
2016-12-11 04:39:00,64.6,60.3,30.06,NE,36,2.0,2.0,86,0.00,,,0.00,Wunderground v.1.15,2016-12-10 17:39:00,
2016-12-11 04:45:00,64.5,60.2,30.06,NNW,341,1.0,2.0,86,0.00,,,0.00,Wunderground v.1.15,2016-12-10 17:45:00,
2016-12-11 04:51:00,64.5,60.2,30.07,ENE,62,1.0,3.0,86,0.00,,,0.00,Wunderground v.1.15,2016-12-10 17:51:00,
2016-12-11 04:56:00,64.5,60.2,30.07,North,355,1.0,3.0,86,0.00,,,0.00,Wunderground v.1.15,2016-12-10 17:56:00,
2016-12-11 05:01:00,64.5,60.5,30.07,NE,47,1.0,2.0,87,0.00,,,0.00,Wunderground v.1.15,2016-12-10 18:01:00,
2016-12-11 05:06:00,64.4,60.4,30.07,NNE,15,1.0,2.0,87,0.00,,,0.00,Wunderground v.1.15,2016-12-10 18:06:00,
2016-12-11 05:12:00,64.3,60.3,30.07,NE,36,1.0,1.0,87,0.00,,,0.00,Wunderground v.1.15,2016-12-10 18:12:00,
2016-12-11 05:22:00,64.1,60.5,30.08,North,7,0.0,1.0,88,0.00,,,0.00,Wunderground v.1.15,2016-12-10 18:22:00,
2016-12-11 05:28:00,64.0,60.7,30.08,NNE,12,1.0,3.0,89,0.00,,,0.00,Wunderground v.1.15,2016-12-10 18:28:00,
2016-12-11 05:33:00,63.9,60.6,30.08,NNE,15,1.0,1.0,89,0.00,,,0.00,Wunderground v.1.15,2016-12-10 18:33:00,
2016-12-11 05:40:00,63.7,60.4,30.08,NE,42,0.0,1.0,89,0.00,,,0.00,Wunderground v.1.15,2016-12-10 18:40:00,
2016-12-11 05:46:00,63.8,60.5,30.08,North,0,1.0,4.0,89,0.00,,,-99.99,WeatherLink 6.0.2,2016-12-10 18:46:00,
2016-12-11 05:51:00,63.5,60.2,30.08,North,359,1.0,2.0,89,0.00,,,0.00,Wunderground v.1.15,2016-12-10 18:51:00,
2016-12-11 05:57:00,63.6,60.0,30.08,NNE,20,2.0,4.0,88,0.00,,,0.00,Wunderground v.1.15,2016-12-10 18:57:00,
2016-12-11 06:02:00,63.7,60.1,30.09,NE,36,2.0,2.0,88,0.00,,,0.00,Wunderground v.1.15,2016-12-10 19:02:00,
2016-12-11 06:07:00,63.7,60.1,30.09,North,350,1.0,2.0,88,0.00,,,0.00,Wunderground v.1.15,2016-12-10 19:07:00,
2016-12-11 06:12:00,63.7,60.1,30.09,NW,325,2.0,2.0,88,0.00,,,0.00,Wunderground v.1.15,2016-12-10 19:12:00,
2016-12-11 06:18:00,63.8,59.9,30.09,NE,43,1.0,3.0,87,0.00,,,0.00,Wunderground v.1.15,2016-12-10 19:18:00,
2016-12-11 06:24:00,63.9,60.0,30.09,NNE,24,1.0,1.0,87,0.00,,,0.00,Wunderground v.1.15,2016-12-10 19:24:00,
2016-12-11 06:29:00,64.0,60.1,30.10,NNE,26,1.0,1.0,87,0.00,,,0.00,Wunderground v.1.15,2016-12-10 19:29:00,
2016-12-11 06:34:00,64.1,60.2,30.10,NNE,15,1.0,2.0,87,0.00,,,0.00,Wunderground v.1.15,2016-12-10 19:34:00,
2016-12-11 06:40:00,64.7,60.7,30.10,North,360,1.0,2.0,87,0.00,,,0.00,Wunderground v.1.15,2016-12-10 19:40:00,
2016-12-11 06:46:00,64.5,60.2,30.10,North,0,1.0,5.0,86,0.00,,,-99.99,WeatherLink 6.0.2,2016-12-10 19:46:00,
2016-12-11 06:51:00,65.9,61.3,30.10,North,355,1.0,2.0,85,0.00,,,0.00,Wunderground v.1.15,2016-12-10 19:51:00,
2016-12-11 06:57:00,66.2,61.6,30.11,North,9,1.0,3.0,85,0.00,,,0.00,Wunderground v.1.15,2016-12-10 19:57:00,
2016-12-11 07:02:00,66.5,61.8,30.11,NNE,27,1.0,3.0,85,0.00,,,0.00,Wunderground v.1.15,2016-12-10 20:02:00,
2016-12-11 07:07:00,67.0,62.0,30.11,NNE,17,1.0,3.0,84,0.00,,,0.00,Wunderground v.1.15,2016-12-10 20:07:00,
2016-12-11 07:12:00,67.5,62.2,30.11,North,350,1.0,2.0,83,0.00,,,0.00,Wunderground v.1.15,2016-12-10 20:12:00,
2016-12-11 07:18:00,67.9,62.2,30.11,North,355,2.0,2.0,82,0.00,,,0.00,Wunderground v.1.15,2016-12-10 20:18:00,
2016-12-11 07:23:00,68.1,62.4,30.11,NNE,23,2.0,3.0,82,0.00,,,0.00,Wunderground v.1.15,2016-12-10 20:23:00,
2016-12-11 07:29:00,68.3,62.2,30.11,North,5,2.0,2.0,81,0.00,,,0.00,Wunderground v.1.15,2016-12-10 20:29:00,
2016-12-11 07:35:00,68.4,62.3,30.11,NNE,22,2.0,5.0,81,0.00,,,0.00,Wunderground v.1.15,2016-12-10 20:35:00,
2016-12-11 07:40:00,68.5,62.4,30.11,NW,318,2.0,3.0,81,0.00,,,0.00,Wunderground v.1.15,2016-12-10 20:40:00,
2016-12-11 07:46:00,68.7,62.3,30.12,NNE,17,2.0,6.0,80,0.00,,,0.00,Wunderground v.1.15,2016-12-10 20:46:00,
2016-12-11 07:52:00,68.8,62.4,30.12,North,359,2.0,3.0,80,0.00,,,0.00,Wunderground v.1.15,2016-12-10 20:52:00,
2016-12-11 07:57:00,68.9,62.1,30.12,NNE,15,2.0,4.0,79,0.00,,,0.00,Wunderground v.1.15,2016-12-10 20:57:00,
2016-12-11 08:02:00,69.1,62.3,30.13,North,352,3.0,4.0,79,0.00,,,0.00,Wunderground v.1.15,2016-12-10 21:02:00,
2016-12-11 08:08:00,69.3,62.1,30.13,North,355,3.0,4.0,78,0.00,,,0.00,Wunderground v.1.15,2016-12-10 21:08:00,
2016-12-11 08:14:00,69.6,62.1,30.13,North,352,2.0,4.0,77,0.00,,,0.00,Wunderground v.1.15,2016-12-10 21:14:00,
2016-12-11 08:19:00,69.8,61.9,30.13,North,4,3.0,3.0,76,0.00,,,0.00,Wunderground v.1.15,2016-12-10 21:19:00,
2016-12-11 08:24:00,70.2,62.3,30.13,North,349,3.0,4.0,76,0.00,,,0.00,Wunderground v.1.15,2016-12-10 21:24:00,
2016-12-11 08:31:00,70.0,61.3,30.13,North,0,3.0,7.0,74,0.00,,,-99.99,WeatherLink 6.0.2,2016-12-10 21:31:00,
2016-12-11 08:36:00,70.9,61.8,30.13,NNW,348,2.0,6.0,73,0.00,,,0.00,Wunderground v.1.15,2016-12-10 21:36:00,
2016-12-11 08:42:00,71.2,61.7,30.13,NW,326,2.0,5.0,72,0.00,,,0.00,Wunderground v.1.15,2016-12-10 21:42:00,
2016-12-11 08:47:00,71.5,62.8,30.13,NW,317,2.0,5.0,74,0.00,,,0.00,Wunderground v.1.15,2016-12-10 21:47:00,
2016-12-11 08:52:00,71.7,62.6,30.13,North,11,2.0,4.0,73,0.00,,,0.00,Wunderground v.1.15,2016-12-10 21:52:00,
2016-12-11 08:58:00,72.0,62.9,30.13,NNE,15,2.0,4.0,73,0.00,,,0.00,Wunderground v.1.15,2016-12-10 21:58:00,
2016-12-11 09:03:00,72.4,62.5,30.13,NNE,32,2.0,3.0,71,0.00,,,0.00,Wunderground v.1.15,2016-12-10 22:03:00,
2016-12-11 09:08:00,72.7,62.3,30.13,East,82,2.0,4.0,70,0.00,,,0.00,Wunderground v.1.15,2016-12-10 22:08:00,
2016-12-11 09:14:00,72.7,61.9,30.13,ENE,64,2.0,2.0,69,0.00,,,0.00,Wunderground v.1.15,2016-12-10 22:14:00,
2016-12-11 09:20:00,72.4,62.1,30.13,NNE,19,2.0,3.0,70,0.00,,,0.00,Wunderground v.1.15,2016-12-10 22:20:00,
2016-12-11 09:25:00,73.0,63.0,30.13,North,9,2.0,3.0,71,0.00,,,0.00,Wunderground v.1.15,2016-12-10 22:25:00,
2016-12-11 09:31:00,72.8,61.6,30.13,NE,45,2.0,5.0,68,0.00,,,-99.99,WeatherLink 6.0.2,2016-12-10 22:31:00,
2016-12-11 09:36:00,74.2,62.5,30.13,NE,43,2.0,4.0,67,0.00,,,0.00,Wunderground v.1.15,2016-12-10 22:36:00,
2016-12-11 09:42:00,74.4,62.7,30.12,NNE,22,2.0,3.0,67,0.00,,,0.00,Wunderground v.1.15,2016-12-10 22:42:00,
2016-12-11 09:47:00,74.6,62.9,30.12,NNW,332,2.0,3.0,67,0.00,,,0.00,Wunderground v.1.15,2016-12-10 22:47:00,
2016-12-11 09:54:00,75.0,62.4,30.12,NE,36,2.0,3.0,65,0.00,,,0.00,Wunderground v.1.15,2016-12-10 22:54:00,
2016-12-11 09:59:00,74.9,62.3,30.12,ENE,78,2.0,2.0,65,0.00,,,0.00,Wunderground v.1.15,2016-12-10 22:59:00,
2016-12-11 10:05:00,74.9,62.3,30.12,NE,36,3.0,4.0,65,0.00,,,0.00,Wunderground v.1.15,2016-12-10 23:05:00,
2016-12-11 10:10:00,75.3,61.8,30.12,NW,317,3.0,3.0,63,0.00,,,0.00,Wunderground v.1.15,2016-12-10 23:10:00,
2016-12-11 10:16:00,75.1,62.1,30.12,North,0,2.0,7.0,64,0.00,,,-99.99,WeatherLink 6.0.2,2016-12-10 23:16:00,
2016-12-11 10:21:00,75.1,61.6,30.12,ENE,59,3.0,3.0,63,0.00,,,0.00,Wunderground v.1.15,2016-12-10 23:21:00,
2016-12-11 10:26:00,75.3,62.3,30.13,NE,41,3.0,3.0,64,0.00,,,0.00,Wunderground v.1.15,2016-12-10 23:26:00,
2016-12-11 10:32:00,75.8,63.6,30.13,NNE,32,2.0,3.0,66,0.00,,,0.00,Wunderground v.1.15,2016-12-10 23:32:00,
2016-12-11 10:37:00,75.4,63.7,30.12,ENE,65,2.0,9.0,67,0.00,,,0.00,Wunderground v.1.15,2016-12-10 23:37:00,
2016-12-11 10:43:00,75.4,63.7,30.12,ENE,78,3.0,6.0,67,0.00,,,0.00,Wunderground v.1.15,2016-12-10 23:43:00,
2016-12-11 10:49:00,75.6,63.4,30.12,NNE,13,3.0,6.0,66,0.00,,,0.00,Wunderground v.1.15,2016-12-10 23:49:00,
2016-12-11 10:55:00,76.0,62.9,30.12,NNE,30,3.0,5.0,64,0.00,,,0.00,Wunderground v.1.15,2016-12-10 23:55:00,
2016-12-11 11:01:00,75.8,62.3,30.12,North,0,3.0,7.0,63,0.00,,,-99.99,WeatherLink 6.0.2,2016-12-11 00:01:00,
2016-12-11 11:06:00,76.0,63.8,30.12,NW,323,3.0,6.0,66,0.00,,,0.00,Wunderground v.1.15,2016-12-11 00:06:00,
2016-12-11 11:12:00,76.1,63.9,30.12,NW,315,3.0,5.0,66,0.00,,,0.00,Wunderground v.1.15,2016-12-11 00:12:00,
2016-12-11 11:17:00,76.3,63.7,30.11,NE,35,3.0,5.0,65,0.00,,,0.00,Wunderground v.1.15,2016-12-11 00:17:00,
2016-12-11 11:23:00,76.7,63.2,30.11,NW,325,3.0,4.0,63,0.00,,,0.00,Wunderground v.1.15,2016-12-11 00:23:00,
2016-12-11 11:29:00,76.8,62.8,30.11,NNE,17,4.0,4.0,62,0.00,,,0.00,Wunderground v.1.15,2016-12-11 00:29:00,
2016-12-11 11:34:00,77.4,63.4,30.11,East,82,4.0,4.0,62,0.00,,,0.00,Wunderground v.1.15,2016-12-11 00:34:00,
2016-12-11 11:40:00,77.6,63.1,30.11,NNE,21,3.0,4.0,61,0.00,,,0.00,Wunderground v.1.15,2016-12-11 00:40:00,
2016-12-11 11:46:00,77.4,62.4,30.10,NNE,22,3.0,11.0,60,0.00,,,-99.99,WeatherLink 6.0.2,2016-12-11 00:46:00,
2016-12-11 11:51:00,77.6,63.5,30.10,NE,36,4.0,6.0,62,0.00,,,0.00,Wunderground v.1.15,2016-12-11 00:51:00,
2016-12-11 11:56:00,77.0,62.0,30.10,WSW,253,4.0,13.0,60,0.00,,,0.00,Wunderground v.1.15,2016-12-11 00:56:00,
2016-12-11 12:02:00,76.8,62.3,30.10,ENE,73,5.0,5.0,61,0.00,,,0.00,Wunderground v.1.15,2016-12-11 01:02:00,
2016-12-11 12:07:00,77.0,62.5,30.10,NE,55,4.0,5.0,61,0.00,,,0.00,Wunderground v.1.15,2016-12-11 01:07:00,
2016-12-11 12:12:00,77.0,63.0,30.10,NNE,15,5.0,6.0,62,0.00,,,0.00,Wunderground v.1.15,2016-12-11 01:12:00,
2016-12-11 12:17:00,77.4,63.8,30.10,East,89,4.0,6.0,63,0.00,,,0.00,Wunderground v.1.15,2016-12-11 01:17:00,
2016-12-11 12:23:00,78.1,63.6,30.10,NNW,338,4.0,5.0,61,0.00,,,0.00,Wunderground v.1.15,2016-12-11 01:23:00,
2016-12-11 12:29:00,77.9,64.3,30.10,NNW,329,4.0,4.0,63,0.00,,,0.00,Wunderground v.1.15,2016-12-11 01:29:00,
2016-12-11 12:34:00,77.8,63.7,30.09,NE,50,4.0,6.0,62,0.00,,,0.00,Wunderground v.1.15,2016-12-11 01:34:00,
2016-12-11 12:39:00,77.4,63.8,30.09,NW,319,4.0,4.0,63,0.00,,,0.00,Wunderground v.1.15,2016-12-11 01:39:00,
2016-12-11 12:46:00,77.7,63.6,30.09,North,0,4.0,14.0,62,0.00,,,-99.99,WeatherLink 6.0.2,2016-12-11 01:46:00,
2016-12-11 12:51:00,77.9,63.4,30.09,NNW,342,4.0,7.0,61,0.00,,,0.00,Wunderground v.1.15,2016-12-11 01:51:00,
2016-12-11 12:57:00,77.8,63.7,30.09,East,84,4.0,9.0,62,0.00,,,0.00,Wunderground v.1.15,2016-12-11 01:57:00,
2016-12-11 13:02:00,78.2,63.6,30.09,NNE,30,4.0,10.0,61,0.00,,,0.00,Wunderground v.1.15,2016-12-11 02:02:00,
2016-12-11 13:08:00,77.7,63.6,30.09,NW,314,4.0,10.0,62,0.00,,,0.00,Wunderground v.1.15,2016-12-11 02:08:00,
2016-12-11 13:14:00,78.2,64.6,30.08,South,177,4.0,7.0,63,0.00,,,0.00,Wunderground v.1.15,2016-12-11 02:14:00,
2016-12-11 13:19:00,77.9,64.3,30.08,NNE,15,4.0,7.0,63,0.00,,,0.00,Wunderground v.1.15,2016-12-11 02:19:00,
2016-12-11 13:24:00,78.1,64.5,30.08,North,359,4.0,4.0,63,0.00,,,0.00,Wunderground v.1.15,2016-12-11 02:24:00,
2016-12-11 13:31:00,78.0,64.4,30.08,North,0,4.0,11.0,63,0.00,,,-99.99,WeatherLink 6.0.2,2016-12-11 02:31:00,
2016-12-11 13:36:00,77.9,64.3,30.08,North,360,5.0,9.0,63,0.00,,,0.00,Wunderground v.1.15,2016-12-11 02:36:00,
2016-12-11 13:41:00,78.0,64.8,30.08,NNW,330,4.0,4.0,64,0.00,,,0.00,Wunderground v.1.15,2016-12-11 02:41:00,
2016-12-11 13:46:00,77.7,64.1,30.08,NNE,30,4.0,5.0,63,0.00,,,0.00,Wunderground v.1.15,2016-12-11 02:46:00,
2016-12-11 13:52:00,77.5,64.4,30.08,North,356,5.0,8.0,64,0.00,,,0.00,Wunderground v.1.15,2016-12-11 02:52:00,
2016-12-11 13:58:00,77.8,64.6,30.08,NW,324,5.0,9.0,64,0.00,,,0.00,Wunderground v.1.15,2016-12-11 02:58:00,
2016-12-11 14:03:00,78.4,64.8,30.08,WNW,283,4.0,8.0,63,0.00,,,0.00,Wunderground v.1.15,2016-12-11 03:03:00,
2016-12-11 14:09:00,77.5,64.4,30.07,NNE,20,5.0,5.0,64,0.00,,,0.00,Wunderground v.1.15,2016-12-11 03:09:00,
2016-12-11 14:15:00,77.5,64.8,30.07,NNE,30,5.0,5.0,65,0.00,,,0.00,Wunderground v.1.15,2016-12-11 03:15:00,
2016-12-11 14:20:00,77.2,64.5,30.07,ENE,71,5.0,5.0,65,0.00,,,0.00,Wunderground v.1.15,2016-12-11 03:20:00,
2016-12-11 14:24:00,77.3,64.2,30.07,WNW,287,4.0,5.0,64,0.00,,,0.00,Wunderground v.1.15,2016-12-11 03:24:00,
2016-12-11 14:31:00,77.3,64.6,30.07,NNE,22,5.0,15.0,65,0.00,,,-99.99,WeatherLink 6.0.2,2016-12-11 03:31:00,
2016-12-11 14:36:00,77.8,64.6,30.07,ENE,62,5.0,7.0,64,0.00,,,0.00,Wunderground v.1.15,2016-12-11 03:36:00,
2016-12-11 14:41:00,77.8,64.6,30.07,North,11,4.0,7.0,64,0.00,,,0.00,Wunderground v.1.15,2016-12-11 03:41:00,
2016-12-11 14:48:00,77.8,64.6,30.07,NE,47,4.0,7.0,64,0.00,,,0.00,Wunderground v.1.15,2016-12-11 03:48:00,
2016-12-11 14:53:00,77.4,64.3,30.07,North,1,5.0,9.0,64,0.00,,,0.00,Wunderground v.1.15,2016-12-11 03:53:00,
2016-12-11 14:58:00,76.9,64.2,30.07,East,84,5.0,9.0,65,0.00,,,0.00,Wunderground v.1.15,2016-12-11 03:58:00,
2016-12-11 15:04:00,77.5,64.8,30.07,North,353,4.0,9.0,65,0.00,,,0.00,Wunderground v.1.15,2016-12-11 04:04:00,
2016-12-11 15:10:00,77.3,65.1,30.07,NE,49,4.0,4.0,66,0.00,,,0.00,Wunderground v.1.15,2016-12-11 04:10:00,
2016-12-11 15:16:00,77.4,64.7,30.07,NE,45,4.0,14.0,65,0.00,,,-99.99,WeatherLink 6.0.2,2016-12-11 04:16:00,
2016-12-11 15:21:00,77.4,65.6,30.07,NW,306,3.0,5.0,67,0.00,,,0.00,Wunderground v.1.15,2016-12-11 04:21:00,
2016-12-11 15:26:00,77.2,64.5,30.07,North,1,4.0,5.0,65,0.00,,,0.00,Wunderground v.1.15,2016-12-11 04:26:00,
2016-12-11 15:31:00,77.0,64.8,30.06,ENE,69,4.0,7.0,66,0.00,,,0.00,Wunderground v.1.15,2016-12-11 04:31:00,
2016-12-11 15:37:00,76.7,64.5,30.06,ENE,60,4.0,9.0,66,0.00,,,0.00,Wunderground v.1.15,2016-12-11 04:37:00,
2016-12-11 15:42:00,76.3,64.5,30.06,NE,50,4.0,4.0,67,0.00,,,0.00,Wunderground v.1.15,2016-12-11 04:42:00,
2016-12-11 15:47:00,76.3,64.5,30.06,NE,55,4.0,9.0,67,0.00,,,0.00,Wunderground v.1.15,2016-12-11 04:47:00,
2016-12-11 15:53:00,76.7,64.9,30.06,SE,134,4.0,4.0,67,0.00,,,0.00,Wunderground v.1.15,2016-12-11 04:53:00,
2016-12-11 15:58:00,76.2,64.9,30.06,East,80,4.0,10.0,68,0.00,,,0.00,Wunderground v.1.15,2016-12-11 04:58:00,
2016-12-11 16:04:00,76.3,65.0,30.06,North,356,4.0,5.0,68,0.00,,,0.00,Wunderground v.1.15,2016-12-11 05:04:00,
2016-12-11 16:10:00,76.9,64.7,30.06,NNE,26,4.0,4.0,66,0.00,,,0.00,Wunderground v.1.15,2016-12-11 05:10:00,
2016-12-11 16:16:00,76.5,64.3,30.05,North,0,4.0,15.0,66,0.00,,,-99.99,WeatherLink 6.0.2,2016-12-11 05:16:00,
2016-12-11 16:21:00,76.3,64.1,30.05,ENE,68,4.0,9.0,66,0.00,,,0.00,Wunderground v.1.15,2016-12-11 05:21:00,
2016-12-11 16:27:00,76.3,64.1,30.05,North,360,4.0,12.0,66,0.00,,,0.00,Wunderground v.1.15,2016-12-11 05:27:00,
2016-12-11 16:32:00,75.9,64.2,30.05,North,357,5.0,5.0,67,0.00,,,0.00,Wunderground v.1.15,2016-12-11 05:32:00,
2016-12-11 16:38:00,75.7,64.0,30.05,NNE,32,5.0,6.0,67,0.00,,,0.00,Wunderground v.1.15,2016-12-11 05:38:00,
2016-12-11 16:43:00,75.7,64.0,30.05,NE,49,4.0,5.0,67,0.00,,,0.00,Wunderground v.1.15,2016-12-11 05:43:00,
2016-12-11 16:49:00,75.7,64.0,30.05,ENE,68,4.0,6.0,67,0.00,,,0.00,Wunderground v.1.15,2016-12-11 05:49:00,
2016-12-11 16:54:00,75.3,64.0,30.04,NNW,346,5.0,10.0,68,0.00,,,0.00,Wunderground v.1.15,2016-12-11 05:54:00,
2016-12-11 17:01:00,75.5,64.2,30.05,North,0,5.0,14.0,68,0.00,,,-99.99,WeatherLink 6.0.2,2016-12-11 06:01:00,
2016-12-11 17:07:00,75.0,63.7,30.04,NW,321,5.0,9.0,68,0.00,,,0.00,Wunderground v.1.15,2016-12-11 06:07:00,
2016-12-11 17:12:00,74.7,63.4,30.04,ENE,67,5.0,10.0,68,0.00,,,0.00,Wunderground v.1.15,2016-12-11 06:12:00,
2016-12-11 17:18:00,74.8,63.9,30.04,NNW,340,4.0,10.0,69,0.00,,,0.00,Wunderground v.1.15,2016-12-11 06:18:00,
2016-12-11 17:24:00,74.8,63.9,30.04,NE,35,4.0,10.0,69,0.00,,,0.00,Wunderground v.1.15,2016-12-11 06:24:00,
2016-12-11 17:29:00,74.8,63.9,30.04,NE,35,4.0,4.0,69,0.00,,,0.00,Wunderground v.1.15,2016-12-11 06:29:00,
2016-12-11 17:35:00,74.6,63.8,30.04,ENE,63,4.0,12.0,69,0.00,,,0.00,Wunderground v.1.15,2016-12-11 06:35:00,
2016-12-11 17:40:00,74.1,63.7,30.04,East,88,4.0,5.0,70,0.00,,,0.00,Wunderground v.1.15,2016-12-11 06:40:00,
2016-12-11 17:45:00,74.4,64.0,30.04,ENE,67,4.0,13.0,70,0.00,,,-99.99,WeatherLink 6.0.2,2016-12-11 06:45:00,
2016-12-11 17:51:00,73.8,63.8,30.05,NW,315,4.0,4.0,71,0.00,,,0.00,Wunderground v.1.15,2016-12-11 06:51:00,
2016-12-11 17:56:00,74.0,63.6,30.05,North,5,4.0,7.0,70,0.00,,,0.00,Wunderground v.1.15,2016-12-11 06:56:00,
2016-12-11 18:01:00,73.6,63.6,30.05,East,89,4.0,4.0,71,0.00,,,0.00,Wunderground v.1.15,2016-12-11 07:01:00,
2016-12-11 18:07:00,73.3,63.7,30.06,East,88,4.0,9.0,72,0.00,,,0.00,Wunderground v.1.15,2016-12-11 07:07:00,
2016-12-11 18:13:00,73.2,63.6,30.06,ENE,59,4.0,5.0,72,0.00,,,0.00,Wunderground v.1.15,2016-12-11 07:13:00,
2016-12-11 18:18:00,73.0,63.4,30.06,SE,127,4.0,6.0,72,0.00,,,0.00,Wunderground v.1.15,2016-12-11 07:18:00,
2016-12-11 18:23:00,72.7,63.5,30.06,NNW,336,5.0,5.0,73,0.00,,,0.00,Wunderground v.1.15,2016-12-11 07:23:00,
2016-12-11 18:29:00,72.6,63.4,30.06,NNE,22,4.0,9.0,73,0.00,,,0.00,Wunderground v.1.15,2016-12-11 07:29:00,
2016-12-11 18:34:00,72.4,63.3,30.06,North,355,4.0,11.0,73,0.00,,,0.00,Wunderground v.1.15,2016-12-11 07:34:00,
2016-12-11 18:40:00,72.3,63.5,30.06,East,82,4.0,6.0,74,0.00,,,0.00,Wunderground v.1.15,2016-12-11 07:40:00,
2016-12-11 18:46:00,72.4,63.6,30.06,North,0,4.0,13.0,74,0.00,,,-99.99,WeatherLink 6.0.2,2016-12-11 07:46:00,
2016-12-11 18:51:00,71.7,63.0,30.06,NNE,23,4.0,6.0,74,0.00,,,0.00,Wunderground v.1.15,2016-12-11 07:51:00,
2016-12-11 18:57:00,71.4,63.1,30.07,NE,38,5.0,7.0,75,0.00,,,0.00,Wunderground v.1.15,2016-12-11 07:57:00,